Location: Kuppenheim
(48.8299°N, 8.2568°E)
Time: 08:19:24
(UTC+00:00)

Cosmos 1076 Rocket - Pass Details

Date: 20 June 2021
Orbit: 590 x 611 km, 82.5° (Epoch: 02 August)

Event Time Altitude Azimuth Distance (km) Brightness Sun altitude
Exits shadow 01:49:45 16° 223° (SW) 1,577 5.0 -11.2°
Maximum altitude 01:52:47 38° 286° (WNW) 905 4.3 -10.9°
Drops below altitude 10° 01:56:47 10° 356° (N) 1,934 6.9 -10.5°
Sets 01:59:08 0° 4° (N) 2,843 8.1 -10.3°
